Change the Weather History Date:

Tuesday, October 29, 2013

  Actual Average Record
Temperature  
Mean Temperature 54 °F -  
Max Temperature 62 °F 60 °F 73 °F (1984)
Min Temperature 47 °F 33 °F 18 °F (1987)
Degree Days  
Heating Degree Days 10    
Growing Degree Days 4 (Base 50)    
Moisture  
Dew Point 46 °F    
Average Humidity 74    
Maximum Humidity 95    
Minimum Humidity 52    
Precipitation  
Precipitation 0.00 in - - ()
Sea Level Pressure  
Sea Level Pressure 30.32 in    
Wind  
Wind Speed 2 mph (SSE)    
Max Wind Speed 7 mph    
Max Gust Speed -    
Visibility 9 miles    
Events      
Averages and records for this station are not official NWS values.
T = Trace of Precipitation, MM = Missing Value Source: NWS Daily Summary

Daily Weather History Graph

Daily Weather History Graph

Search for Another Location

Airport or City:

Trip Planner

Search our weather history database for the weather conditions in past years. The results will help you decide how hot, cold, wet, or windy it might be!

Date:

Astronomy

Oct. 29, 2013 Rise Set
Actual Time 7:46 AM EDT 6:32 PM EDT
Civil Twilight 7:19 AM EDT 6:58 PM EDT
Nautical Twilight 6:49 AM EDT 7:28 PM EDT
Astronomical Twilight 6:19 AM EDT 7:58 PM EDT
Moon 2:43 AM EDT (10/29) 3:37 PM EDT (10/29)
Length of Visible Light 11h 38m
Length of Day
10h 45m
Waning Crescent, 25% of the Moon is Illuminated
Oct 29
Waning Crescent
Nov 3
New
Nov 10
First Quarter
Nov 17
Full
Nov 25
Last Quarter

Hourly Weather History & Observations

Time (EDT) Temp. Dew Point Humidity Pressure Visibility Wind Dir Wind Speed Gust Speed Precip Events Conditions
12:15 AM 49.1 °F 47.7 °F 95% 30.29 in 5.0 mi Calm Calm - N/A   Overcast
12:35 AM 48.2 °F 46.8 °F 95% 30.29 in 2.0 mi SW 3.5 mph - N/A   Overcast
12:55 AM 48.0 °F 46.2 °F 93% 30.30 in 1.8 mi Calm Calm - N/A   Overcast
1:15 AM 47.8 °F 45.9 °F 93% 30.30 in 3.0 mi Calm Calm - N/A   Overcast
1:35 AM 47.7 °F 46.0 °F 94% 30.30 in 7.0 mi Calm Calm - N/A   Overcast
1:55 AM 49.5 °F 47.3 °F 92% 30.30 in 10.0 mi Calm Calm - N/A   Overcast
2:15 AM 50.0 °F 46.6 °F 88% 30.30 in 10.0 mi NW 3.5 mph - N/A   Overcast
2:35 AM 52.0 °F 47.3 °F 84% 30.30 in 10.0 mi Calm Calm - N/A   Mostly Cloudy
2:55 AM 48.9 °F 46.8 °F 92% 30.29 in 1.5 mi Calm Calm - N/A   Mostly Cloudy
3:15 AM 48.4 °F 46.8 °F 94% 30.29 in 10.0 mi Calm Calm - N/A   Scattered Clouds
3:35 AM 48.4 °F 46.2 °F 92% 30.29 in 10.0 mi Calm Calm - N/A   Scattered Clouds
3:55 AM 50.0 °F 46.9 °F 89% 30.29 in 10.0 mi NW 4.6 mph - N/A   Mostly Cloudy
4:15 AM 50.2 °F 47.1 °F 89% 30.29 in 10.0 mi Calm Calm - N/A   Mostly Cloudy
4:35 AM 49.6 °F 47.3 °F 92% 30.30 in 10.0 mi NW 5.8 mph - N/A   Scattered Clouds
4:55 AM 52.0 °F 46.8 °F 82% 30.30 in 10.0 mi Calm Calm - N/A   Mostly Cloudy
5:15 AM 51.3 °F 46.4 °F 83% 30.31 in 10.0 mi Calm Calm - N/A   Mostly Cloudy
5:35 AM 52.0 °F 46.9 °F 83% 30.31 in 10.0 mi Calm Calm - N/A   Mostly Cloudy
5:55 AM 50.2 °F 46.8 °F 88% 30.31 in 10.0 mi Calm Calm - N/A   Scattered Clouds
6:15 AM 48.9 °F 45.5 °F 88% 30.33 in 10.0 mi Calm Calm - N/A   Scattered Clouds
6:35 AM 48.2 °F 45.9 °F 92% 30.34 in 10.0 mi Calm Calm - N/A   Scattered Clouds
6:55 AM 50.5 °F 47.3 °F 89% 30.33 in 10.0 mi West 3.5 mph - N/A   Mostly Cloudy
7:15 AM 50.4 °F 47.3 °F 89% 30.33 in 10.0 mi West 4.6 mph - N/A   Overcast
7:55 AM 50.4 °F 46.9 °F 88% 30.34 in 10.0 mi West 3.5 mph - N/A   Overcast
8:15 AM 51.3 °F 46.8 °F 85% 30.34 in 10.0 mi West 3.5 mph - N/A   Mostly Cloudy
8:35 AM 49.5 °F 46.8 °F 90% 30.34 in 7.0 mi Calm Calm - N/A   Mostly Cloudy
8:55 AM 50.7 °F 47.3 °F 88% 30.36 in 10.0 mi Calm Calm - N/A   Scattered Clouds
9:15 AM 51.3 °F 47.8 °F 88% 30.36 in 10.0 mi Calm Calm - N/A   Scattered Clouds
9:35 AM 52.3 °F 48.7 °F 88% 30.36 in 10.0 mi Calm Calm - N/A   Clear
9:55 AM 53.8 °F 47.5 °F 79% 30.36 in 10.0 mi Calm Calm - N/A   Clear
10:15 AM 54.3 °F 46.6 °F 75% 30.37 in 10.0 mi Calm Calm - N/A   Clear
10:55 AM 56.7 °F 48.4 °F 74% 30.36 in 10.0 mi Calm Calm - N/A   Clear
11:15 AM 57.4 °F 46.0 °F 66% 30.36 in 10.0 mi Calm Calm - N/A   Clear
11:35 AM 57.4 °F 46.9 °F 68% 30.36 in 10.0 mi Calm Calm - N/A   Clear
11:55 AM 58.6 °F 46.2 °F 63% 30.36 in 10.0 mi ESE 5.8 mph - N/A   Scattered Clouds
12:15 PM 59.7 °F 43.9 °F 56% 30.36 in 10.0 mi East 4.6 mph - N/A   Scattered Clouds
12:35 PM 59.9 °F 43.5 °F 55% 30.35 in 10.0 mi ESE 5.8 mph - N/A   Mostly Cloudy
12:55 PM 60.8 °F 44.1 °F 54% 30.35 in 10.0 mi ESE 4.6 mph - N/A   Overcast
1:15 PM 61.5 °F 44.8 °F 54% 30.34 in 10.0 mi ESE 6.9 mph - N/A   Mostly Cloudy
1:35 PM 61.0 °F 45.3 °F 56% 30.33 in 10.0 mi SE 5.8 mph - N/A   Mostly Cloudy
1:55 PM 61.7 °F 45.5 °F 55% 30.32 in 10.0 mi SSE 5.8 mph - N/A   Scattered Clouds
2:15 PM 61.3 °F 45.1 °F 55% 30.31 in 10.0 mi SE 5.8 mph - N/A   Mostly Cloudy
2:35 PM 61.0 °F 45.0 °F 56% 30.31 in 10.0 mi SE 5.8 mph - N/A   Mostly Cloudy
2:55 PM 62.1 °F 45.0 °F 53% 30.30 in 10.0 mi SE 4.6 mph - N/A   Overcast
3:15 PM 61.5 °F 44.2 °F 53% 30.30 in 10.0 mi SSE 5.8 mph - N/A   Overcast
3:35 PM 61.5 °F 44.2 °F 53% 30.29 in 10.0 mi SSE 4.6 mph - N/A   Overcast
3:55 PM 61.7 °F 44.1 °F 52% 30.30 in 10.0 mi SE 4.6 mph - N/A   Overcast
4:15 PM 62.1 °F 44.6 °F 53% 30.30 in 10.0 mi SE 5.8 mph - N/A   Overcast
4:35 PM 60.8 °F 45.0 °F 56% 30.29 in 10.0 mi SE 3.5 mph - N/A   Overcast
4:55 PM 61.0 °F 44.8 °F 55% 30.29 in 10.0 mi SE 4.6 mph - N/A   Mostly Cloudy
5:15 PM 61.2 °F 45.1 °F 56% 30.29 in 10.0 mi SE 4.6 mph - N/A   Mostly Cloudy
5:35 PM 60.8 °F 45.5 °F 57% 30.30 in 10.0 mi SE 3.5 mph - N/A   Overcast
5:55 PM 59.2 °F 45.3 °F 60% 30.29 in 10.0 mi Calm Calm - N/A   Scattered Clouds
6:15 PM 58.1 °F 45.3 °F 62% 30.30 in 10.0 mi SE 3.5 mph - N/A   Clear
6:35 PM 57.2 °F 45.5 °F 65% 30.31 in 10.0 mi Calm Calm - N/A   Scattered Clouds
6:55 PM 56.8 °F 45.5 °F 66% 30.31 in 10.0 mi Calm Calm - N/A   Scattered Clouds
7:15 PM 56.5 °F 45.9 °F 68% 30.31 in 10.0 mi Calm Calm - N/A   Overcast
7:35 PM 56.5 °F 46.0 °F 68% 30.33 in 10.0 mi Calm Calm - N/A   Overcast
7:55 PM 56.3 °F 45.9 °F 68% 30.33 in 10.0 mi Calm Calm - N/A   Overcast
8:15 PM 55.6 °F 45.9 °F 70% 30.33 in 10.0 mi Calm Calm - N/A   Mostly Cloudy
8:35 PM 55.4 °F 45.7 °F 70% 30.32 in 10.0 mi Calm Calm - N/A   Scattered Clouds
8:55 PM 55.4 °F 45.7 °F 70% 30.31 in 10.0 mi Calm Calm - N/A   Clear
9:15 PM 55.8 °F 45.7 °F 69% 30.32 in 10.0 mi Calm Calm - N/A   Scattered Clouds
9:35 PM 55.4 °F 45.5 °F 69% 30.32 in 10.0 mi Calm Calm - N/A   Scattered Clouds
9:55 PM 55.0 °F 45.5 °F 70% 30.32 in 10.0 mi Calm Calm - N/A   Mostly Cloudy
10:15 PM 54.1 °F 45.7 °F 73% 30.32 in 10.0 mi Calm Calm - N/A   Overcast
10:35 PM 54.3 °F 45.7 °F 73% 30.33 in 10.0 mi Calm Calm - N/A   Overcast
10:55 PM 54.3 °F 45.7 °F 73% 30.32 in 10.0 mi Calm Calm - N/A   Overcast
11:15 PM 54.5 °F 45.7 °F 72% 30.32 in 10.0 mi Calm Calm - N/A   Overcast
11:35 PM 54.0 °F 45.9 °F 74% 30.31 in 10.0 mi Calm Calm - N/A   Overcast
11:55 PM 54.0 °F 45.9 °F 74% 30.31 in 10.0 mi Calm Calm - N/A   Overcast